STARLINK-1028

Last updated on Thu Dec 12 2019 00:02:03 GMT+0000 (Coordinated Universal Time)

1 44733U 19074W 19345.58335648 .00053427 00000-0 38239-3 0 9995 2 44733 53.0091 21.4891 0001946 7.8041 55.8487 15.73211462 4739

Satellite not in orbit

STARLINK-1028